SEDSat Delta rocket - Orbit

View from above orbital plane
View from above orbital plane
View from above satellite
View from above satellite

Ground track
Ground track

The orbit data is extracted from the following two-line orbital elements,

1 25510U 98061C   13144.85143001  .00000530  00000-0  82576-4 0  6034
2 25510 031.4380 001.5362 0336964 256.5443 211.2566 14.34804436763759
Epoch (UTC): 24 May 2013 20:26:03
Eccentricity: 0.0336964
inclination: 31.4380°
perigee height: 534 km
apogee height: 1017 km
right ascension of ascending node: 1.5362°
argument of perigee: 256.5443°
revolutions per day: 14.34804436
mean anomaly at epoch: 211.2566°
orbit number at epoch: 76375

The dashed part of the orbit path shows where the satellite is in the earth's shadow,  

Developed and maintained by Chris Peat, Heavens-Above GmbH. Please read the updated FAQ before sending e-mail. Imprint. DLR